Home   Weather   Friedrichshafen   Past weeks
Flag for Germany

Past Weather in Friedrichshafen, Baden-Württemberg, Germany — Yesterday and Last 2 Weeks

Now
59 °F

Sunny.


Feels Like: 59 °F
Forecast: 59 / 49 °F
Wind: 2 mph from North

Location: Friedrichshafen Airport

Current Time: Oct 18, 2019 at 1:36:55 pm

Latest Report: Oct 18, 2019 at 12:50 pm


Visibility: 10 mi

Pressure: 29.95 "Hg

Humidity: 77%

Dew Point: 52 °F

Location of FriedrichshafenLocation

Past Weather in Friedrichshafen — Graph

°F

Friedrichshafen Temperature Yesterday

Maximum temperature yesterday: 64 °F (at 1:20 pm)
Minimum temperature yesterday: 39 °F (at 12:50 am)
Average temperature yesterday: 51 °F

High & Low Weather Summary for the Past Weeks

 TemperatureHumidityPressure
High72 °F (Oct 13, 3:50 pm)100% (Oct 3, 10:20 pm)30.21 "Hg (Oct 3, 10:20 pm)
Low37 °F (Oct 11, 4:20 am)45% (Oct 16, 4:50 pm)29.74 "Hg (Oct 15, 8:50 am)
Average52 °F83%30.01 "Hg
* Reported Oct 3 11:20 am — Oct 18 11:50 am, Friedrichshafen. Weather by CustomWeather, © 2019

Note: Actual official high and low records may vary slightly from our data, if they occured in-between our weather recording intervals... More about our weather records

Advertising

Friedrichshafen Weather History for the Previous 24 Hours

Scroll right to see more
 ConditionsComfort  
Time TempWeatherWind HumidityBarometerVisibility
11:50 am
Fri, Oct 18
61 °FSunny.2 mph68%29.95 "Hg10 mi
11:20 am59 °FSunny.2 mph72%29.95 "Hg10 mi
10:20 am54 °FPassing clouds.3 mph88%29.95 "HgN/A
9:50 am52 °FSunny.2 mph94%29.95 "Hg10 mi
9:20 am52 °FSunny.2 mph94%29.98 "Hg10 mi
8:50 am50 °FSunny.2 mph94%29.98 "Hg10 mi
8:20 am48 °FLight rain. Scattered clouds.1 mph94%29.98 "HgN/A
7:50 am46 °FSunny.No wind100%29.98 "Hg10 mi
7:20 am48 °FClear.2 mph94%29.98 "Hg10 mi
6:50 am48 °FClear.3 mph94%29.98 "Hg10 mi
6:20 am48 °FClear.2 mph94%29.98 "Hg10 mi
5:50 am48 °FPassing clouds.2 mph100%29.98 "HgN/A
5:20 am50 °FPartly cloudy.3 mph94%29.98 "HgN/A
4:50 am50 °FPassing clouds.3 mph94%29.98 "HgN/A
4:20 am50 °FPassing clouds.5 mph94%29.98 "HgN/A
3:50 am50 °FPassing clouds.2 mph94%29.98 "HgN/A
3:20 am52 °FPassing clouds.3 mph88%29.98 "HgN/A
2:50 am52 °FPassing clouds.2 mph94%30.01 "HgN/A
2:20 am52 °FOvercast.2 mph94%30.01 "HgN/A
1:50 am52 °FOvercast.2 mph94%30.01 "HgN/A
1:20 am52 °FPassing clouds.1 mph94%30.01 "HgN/A
12:50 am52 °FPassing clouds.2 mph94%30.01 "HgN/A
12:20 am54 °FPassing clouds.2 mph82%30.04 "HgN/A
11:50 pm
Thu, Oct 17
54 °FMostly cloudy.No wind88%30.04 "HgN/A
11:20 pm54 °FOvercast.No wind88%30.04 "HgN/A
10:20 pm52 °FOvercast.2 mph94%30.04 "HgN/A
9:50 pm54 °FPassing clouds.2 mph88%30.04 "HgN/A
9:20 pm54 °FClear.2 mph82%30.01 "Hg10 mi
8:50 pm54 °FClear.2 mph88%30.01 "Hg10 mi
8:20 pm54 °FClear.1 mph82%30.01 "Hg10 mi
7:50 pm54 °FClear.No wind82%30.01 "Hg10 mi
7:20 pm57 °FClear.No wind77%29.98 "Hg10 mi
6:50 pm57 °FClear.No wind77%29.98 "Hg10 mi
6:20 pm59 °FSunny.1 mph77%29.98 "Hg10 mi
5:50 pm59 °FSunny.1 mph77%29.98 "Hg10 mi
4:20 pm64 °FPassing clouds.6 mph60%29.98 "HgN/A
3:50 pm64 °FPassing clouds.5 mph60%29.98 "HgN/A
3:20 pm64 °FPassing clouds.5 mph56%29.98 "HgN/A
2:50 pm64 °FPassing clouds.3 mph52%29.98 "HgN/A
2:20 pm64 °FPassing clouds.5 mph52%29.98 "HgN/A
1:50 pm64 °FSunny.1 mph52%30.01 "Hg10 mi
1:20 pm64 °FSunny.3 mph52%30.01 "Hg10 mi
Weather by CustomWeather, © 2019

See weather overview